| time (UTC) | temp F | wind direction | speed knots | gust knots | rain 1hr in | rain 24hr in | rain mn in | humidity % | barometer mb |
| 20260506044452 | 46 | 189 | 0.0 | 0.0 | 0.00 | 0.00 | 0.00 | 88 | 1008.2 |
| 20260506043948 | 46 | 207 | 0.0 | 1.7 | 0.00 | 0.00 | 0.00 | 87 | 1008.1 |
| 20260506043446 | 46 | 182 | 0.0 | 0.0 | 0.00 | 0.00 | 0.00 | 87 | 1008.2 |
| 20260506042943 | 46 | 207 | 1.7 | 2.6 | 0.00 | 0.00 | 0.00 | 86 | 1008.2 |
| 20260506042443 | 46 | 187 | 0.0 | 0.0 | 0.00 | 0.00 | 0.00 | 86 | 1008.5 |
| 20260506041940 | 46 | 199 | 0.0 | 0.0 | 0.00 | 0.00 | 0.00 | 86 | 1008.6 |
| 20260506041438 | 46 | 173 | 2.6 | 2.6 | 0.00 | 0.00 | 0.00 | 86 | 1008.1 |
| 20260506040935 | 45 | 161 | 0.0 | 0.0 | 0.00 | 0.00 | 0.00 | 86 | 1008.4 |
| 20260506040432 | 45 | 184 | 0.0 | 0.0 | 0.00 | 0.00 | 0.00 | 86 | 1008.4 |
| 20260506035928 | 45 | 204 | 0.9 | 0.9 | 0.00 | 0.03 | 0.03 | 86 | 1008.5 |
| 20260506035426 | 45 | 174 | 0.0 | 0.0 | 0.00 | 0.03 | 0.03 | 85 | 1008.5 |
| 20260506034922 | 45 | 189 | 0.0 | 0.0 | 0.00 | 0.03 | 0.03 | 85 | 1008.5 |
| 20260506034420 | 45 | 165 | 0.0 | 0.0 | 0.00 | 0.03 | 0.03 | 85 | 1008.2 |
| 20260506033917 | 45 | 195 | 1.7 | 2.6 | 0.00 | 0.03 | 0.03 | 85 | 1008.4 |
| 20260506033414 | 45 | 185 | 0.0 | 0.0 | 0.00 | 0.03 | 0.03 | 85 | 1008.8 |
| 20260506032911 | 45 | 212 | 0.0 | 0.9 | 0.00 | 0.03 | 0.03 | 85 | 1008.5 |
| 20260506032408 | 45 | 182 | 0.0 | 0.0 | 0.00 | 0.03 | 0.03 | 86 | 1008.6 |
| 20260506031904 | 45 | 181 | 0.0 | 0.0 | 0.00 | 0.03 | 0.03 | 85 | 1008.7 |
| 20260506031402 | 45 | 149 | 0.0 | 0.0 | 0.00 | 0.03 | 0.03 | 85 | 1008.4 |
| 20260506030859 | 45 | 182 | 0.0 | 0.0 | 0.00 | 0.03 | 0.03 | 84 | 1008.6 |
| 20260506030357 | 45 | 178 | 0.0 | 0.0 | 0.00 | 0.03 | 0.03 | 84 | 1008.5 |
| 20260506025854 | 45 | 174 | 0.0 | 0.0 | 0.00 | 0.03 | 0.03 | 83 | 1008.6 |
| 20260506025350 | 44 | 167 | 0.0 | 0.0 | 0.00 | 0.03 | 0.03 | 84 | 1008.6 |
| 20260506024848 | 44 | 170 | 0.0 | 0.0 | 0.00 | 0.03 | 0.03 | 84 | 1008.6 |
| 20260506024344 | 44 | 174 | 0.0 | 0.0 | 0.00 | 0.03 | 0.03 | 84 | 1008.6 |
| 20260506023840 | 44 | 164 | 0.0 | 0.0 | 0.00 | 0.03 | 0.03 | 84 | 1008.6 |
| 20260506023337 | 44 | 183 | 0.0 | 0.0 | 0.00 | 0.03 | 0.03 | 84 | 1008.9 |
| 20260506022834 | 44 | 172 | 0.0 | 0.0 | 0.00 | 0.03 | 0.03 | 84 | 1008.5 |
| 20260506022332 | 44 | 171 | 0.0 | 0.0 | 0.00 | 0.03 | 0.03 | 85 | 1008.7 |
| 20260506021830 | 44 | 175 | 0.0 | 0.0 | 0.00 | 0.03 | 0.03 | 85 | 1008.7 |
| 20260506021326 | 44 | 184 | 0.0 | 0.0 | 0.00 | 0.03 | 0.03 | 85 | 1008.4 |
| 20260506020823 | 44 | 177 | 0.0 | 0.0 | 0.00 | 0.03 | 0.03 | 83 | 1008.5 |
| 20260506020321 | 44 | 170 | 0.0 | 0.0 | 0.00 | 0.03 | 0.03 | 82 | 1008.7 |
| 20260506015818 | 44 | 167 | 0.0 | 0.0 | 0.00 | 0.03 | 0.03 | 81 | 1008.6 |
| 20260506015316 | 44 | 178 | 0.0 | 0.0 | 0.00 | 0.03 | 0.03 | 82 | 1008.5 |
| 20260506014812 | 44 | 172 | 0.0 | 0.0 | 0.00 | 0.03 | 0.03 | 83 | 1008.5 |
| 20260506014309 | 44 | 176 | 0.0 | 0.0 | 0.00 | 0.03 | 0.03 | 84 | 1008.7 |
| 20260506013806 | 44 | 182 | 0.0 | 0.0 | 0.00 | 0.03 | 0.03 | 83 | 1008.6 |
| 20260506013303 | 44 | 182 | 0.0 | 0.0 | 0.00 | 0.03 | 0.03 | 83 | 1008.8 |
| 20260506012800 | 44 | 178 | 0.0 | 0.0 | 0.00 | 0.03 | 0.03 | 82 | 1008.7 |
| 20260506012257 | 44 | 177 | 0.0 | 0.0 | 0.00 | 0.03 | 0.03 | 82 | 1008.7 |
| 20260506011754 | 44 | 171 | 0.0 | 0.0 | 0.00 | 0.03 | 0.03 | 83 | 1008.4 |
| 20260506011250 | 44 | 171 | 0.0 | 0.0 | 0.00 | 0.03 | 0.03 | 83 | 1008.5 |
| 20260506010748 | 45 | 177 | 0.0 | 0.0 | 0.00 | 0.03 | 0.03 | 83 | 1008.5 |
| 20260506010245 | 45 | 183 | 0.0 | 0.0 | 0.00 | 0.03 | 0.03 | 83 | 1008.1 |
| 20260506005743 | 45 | 184 | 0.0 | 0.0 | 0.00 | 0.03 | 0.03 | 81 | 1008.1 |
| 20260506005239 | 45 | 184 | 0.0 | 0.0 | 0.00 | 0.03 | 0.03 | 80 | 1008.1 |
| 20260506004735 | 46 | 182 | 0.0 | 0.0 | 0.00 | 0.03 | 0.03 | 77 | 1007.9 |
| 20260506004233 | 46 | 178 | 0.0 | 0.0 | 0.00 | 0.03 | 0.03 | 76 | 1008.0 |
| 20260506003728 | 46 | 178 | 0.0 | 0.0 | 0.00 | 0.03 | 0.03 | 76 | 1007.7 |
| 20260506003225 | 46 | 167 | 0.0 | 0.0 | 0.00 | 0.03 | 0.03 | 76 | 1007.8 |
| 20260506002721 | 46 | 177 | 0.0 | 0.0 | 0.00 | 0.03 | 0.03 | 77 | 1007.8 |
| 20260506002218 | 46 | 183 | 0.0 | 0.0 | 0.00 | 0.03 | 0.03 | 77 | 1007.9 |
| 20260506001714 | 47 | 182 | 0.0 | 0.0 | 0.00 | 0.03 | 0.03 | 77 | 1007.6 |
| 20260506001211 | 47 | 192 | 0.0 | 0.0 | 0.00 | 0.03 | 0.03 | 76 | 1007.6 |
| 20260506000708 | 47 | 202 | 0.0 | 0.0 | 0.00 | 0.03 | 0.03 | 76 | 1007.7 |
| 20260506000206 | 47 | 205 | 0.0 | 0.0 | 0.00 | 0.03 | 0.03 | 74 | 1007.8 |
| 20260505235703 | 47 | 188 | 0.0 | 0.0 | 0.00 | 0.03 | 0.03 | 73 | 1007.8 |
| 20260505235201 | 47 | 180 | 0.0 | 0.0 | 0.00 | 0.03 | 0.03 | 72 | 1007.8 |
| 20260505234657 | 47 | 186 | 0.0 | 0.0 | 0.00 | 0.03 | 0.03 | 71 | 1008.0 |
| 20260505234154 | 47 | 188 | 0.0 | 0.0 | 0.00 | 0.03 | 0.03 | 72 | 1007.7 |
| 20260505233651 | 47 | 193 | 0.0 | 0.0 | 0.00 | 0.03 | 0.03 | 69 | 1007.6 |
| 20260505233149 | 47 | 195 | 0.0 | 0.0 | 0.00 | 0.03 | 0.03 | 70 | 1007.8 |
| 20260505232646 | 47 | 203 | 0.0 | 0.0 | 0.00 | 0.03 | 0.03 | 69 | 1007.6 |
| 20260505232144 | 47 | 189 | 0.0 | 0.0 | 0.00 | 0.03 | 0.03 | 70 | 1007.9 |
| 20260505231640 | 47 | 192 | 0.0 | 0.0 | 0.00 | 0.03 | 0.03 | 69 | 1007.8 |
| 20260505231139 | 48 | 201 | 0.0 | 0.0 | 0.00 | 0.03 | 0.03 | 67 | 1007.8 |
| 20260505230637 | 48 | 198 | 0.0 | 0.0 | 0.00 | 0.03 | 0.03 | 69 | 1007.6 |
| 20260505230133 | 47 | 196 | 0.0 | 0.0 | 0.00 | 0.03 | 0.03 | 68 | 1007.6 |
| 20260505225629 | 47 | 203 | 0.0 | 0.0 | 0.00 | 0.03 | 0.03 | 69 | 1007.9 |
| 20260505225125 | 47 | 204 | 0.0 | 0.0 | 0.00 | 0.03 | 0.03 | 67 | 1007.7 |
| 20260505224622 | 47 | 194 | 0.0 | 0.0 | 0.00 | 0.03 | 0.03 | 69 | 1007.8 |
| 20260505224120 | 47 | 195 | 0.0 | 0.0 | 0.00 | 0.03 | 0.03 | 68 | 1007.5 |
| 20260505223617 | 47 | 201 | 0.0 | 0.0 | 0.00 | 0.03 | 0.03 | 68 | 1007.7 |
| 20260505223113 | 47 | 206 | 0.0 | 0.0 | 0.00 | 0.03 | 0.03 | 68 | 1007.9 |
| 20260505222609 | 47 | 226 | 0.0 | 0.0 | 0.00 | 0.03 | 0.03 | 70 | 1008.0 |
| 20260505222105 | 47 | 192 | 0.0 | 0.0 | 0.00 | 0.03 | 0.03 | 70 | 1007.9 |
| 20260505221603 | 47 | 212 | 0.0 | 0.0 | 0.00 | 0.03 | 0.03 | 71 | 1008.0 |
| 20260505221059 | 47 | 190 | 0.0 | 0.0 | 0.00 | 0.03 | 0.03 | 71 | 1008.2 |
| 20260505220556 | 47 | 209 | 0.0 | 0.0 | 0.00 | 0.03 | 0.03 | 68 | 1008.2 |
| 20260505220054 | 47 | 226 | 0.0 | 0.0 | 0.00 | 0.03 | 0.03 | 67 | 1008.0 |
| 20260505215552 | 47 | 211 | 0.0 | 0.0 | 0.00 | 0.03 | 0.03 | 69 | 1007.7 |
| 20260505215049 | 47 | 202 | 0.0 | 0.0 | 0.00 | 0.03 | 0.03 | 71 | 1007.9 |
| 20260505214548 | 47 | 213 | 0.0 | 0.0 | 0.00 | 0.03 | 0.03 | 71 | 1007.6 |
| 20260505214044 | 47 | 231 | 0.0 | 0.0 | 0.00 | 0.03 | 0.03 | 70 | 1007.9 |
| 20260505213542 | 47 | 208 | 0.0 | 0.0 | 0.00 | 0.03 | 0.03 | 70 | 1007.8 |
| 20260505213038 | 47 | 212 | 0.0 | 0.0 | 0.00 | 0.03 | 0.03 | 70 | 1008.0 |
| 20260505212535 | 47 | 238 | 0.0 | 0.0 | 0.00 | 0.03 | 0.03 | 68 | 1008.1 |
| 20260505212032 | 47 | 211 | 0.0 | 0.0 | 0.00 | 0.03 | 0.03 | 71 | 1007.9 |
| 20260505211529 | 47 | 215 | 0.0 | 0.0 | 0.00 | 0.03 | 0.03 | 71 | 1008.1 |
| 20260505211025 | 47 | 217 | 0.0 | 0.0 | 0.00 | 0.03 | 0.03 | 70 | 1007.8 |
| 20260505210522 | 47 | 206 | 0.0 | 0.0 | 0.00 | 0.03 | 0.03 | 71 | 1007.8 |
| 20260505210020 | 47 | 257 | 0.0 | 0.0 | 0.00 | 0.03 | 0.03 | 71 | 1007.7 |
| 20260505205518 | 46 | 184 | 0.0 | 0.0 | 0.00 | 0.03 | 0.03 | 72 | 1007.8 |
| 20260505205014 | 46 | 279 | 1.7 | 2.6 | 0.00 | 0.03 | 0.03 | 69 | 1008.0 |
| 20260505204512 | 47 | 226 | 0.9 | 1.7 | 0.00 | 0.03 | 0.03 | 72 | 1008.0 |
| 20260505204009 | 47 | 206 | 0.0 | 0.0 | 0.00 | 0.03 | 0.03 | 72 | 1007.9 |
| 20260505203506 | 46 | 255 | 0.0 | 0.9 | 0.00 | 0.03 | 0.03 | 72 | 1008.0 |
| 20260505203002 | 46 | 226 | 0.9 | 0.9 | 0.00 | 0.03 | 0.03 | 70 | 1008.0 |
| 20260505202459 | 46 | 209 | 0.0 | 0.0 | 0.00 | 0.03 | 0.03 | 73 | 1007.8 |
| 20260505201954 | 46 | 240 | 0.9 | 0.9 | 0.00 | 0.03 | 0.03 | 73 | 1007.8 |
| 20260505201452 | 46 | 191 | 0.0 | 0.0 | 0.00 | 0.03 | 0.03 | 73 | 1007.8 |
| 20260505200949 | 46 | 212 | 0.0 | 0.0 | 0.00 | 0.03 | 0.03 | 74 | 1007.8 |
| 20260505200447 | 46 | 224 | 0.0 | 0.9 | 0.00 | 0.03 | 0.03 | 75 | 1007.9 |
| 20260505195943 | 46 | 211 | 0.9 | 0.9 | 0.00 | 0.03 | 0.03 | 76 | 1007.8 |
| 20260505195440 | 46 | 245 | 2.6 | 4.3 | 0.00 | 0.03 | 0.03 | 74 | 1008.0 |
| 20260505194937 | 46 | 203 | 0.0 | 0.9 | 0.00 | 0.03 | 0.03 | 76 | 1007.9 |
| 20260505194434 | 46 | 229 | 2.6 | 4.3 | 0.00 | 0.03 | 0.03 | 77 | 1007.9 |
| 20260505193934 | 47 | 236 | 0.0 | 0.9 | 0.00 | 0.03 | 0.03 | 77 | 1007.7 |
| 20260505193432 | 46 | 290 | 1.7 | 1.7 | 0.00 | 0.03 | 0.03 | 77 | 1007.8 |
| 20260505192930 | 46 | 231 | 0.9 | 0.9 | 0.00 | 0.03 | 0.03 | 79 | 1007.7 |
| 20260505192428 | 46 | 225 | 0.0 | 0.0 | 0.00 | 0.03 | 0.03 | 78 | 1007.8 |
| 20260505191925 | 46 | 238 | 0.9 | 2.6 | 0.00 | 0.03 | 0.03 | 78 | 1007.6 |
| 20260505191424 | 46 | 242 | 0.0 | 0.0 | 0.00 | 0.03 | 0.03 | 80 | 1007.6 |
| 20260505190920 | 45 | 227 | 0.0 | 0.0 | 0.00 | 0.03 | 0.03 | 80 | 1007.4 |
| 20260505190415 | 45 | 277 | 1.7 | 1.7 | 0.00 | 0.03 | 0.03 | 81 | 1007.3 |
| 20260505185911 | 45 | 207 | 0.0 | 0.0 | 0.00 | 0.03 | 0.03 | 84 | 1007.1 |
| 20260505185409 | 45 | 184 | 0.0 | 0.0 | 0.00 | 0.03 | 0.03 | 83 | 1007.3 |
| 20260505184904 | 45 | 217 | 0.0 | 0.0 | 0.00 | 0.03 | 0.03 | 82 | 1007.5 |
| 20260505184401 | 45 | 230 | 0.0 | 0.0 | 0.00 | 0.03 | 0.03 | 83 | 1007.2 |
| 20260505183858 | 45 | 187 | 0.0 | 0.9 | 0.00 | 0.03 | 0.03 | 85 | 1007.1 |
| 20260505183355 | 45 | 190 | 0.0 | 0.0 | 0.00 | 0.03 | 0.03 | 85 | 1007.2 |
| 20260505182852 | 45 | 71 | 0.9 | 1.7 | 0.07 | 0.03 | 0.03 | 85 | 1007.2 |
| 20260505182349 | 45 | 193 | 0.0 | 0.0 | 0.07 | 0.03 | 0.03 | 84 | 1007.3 |
| 20260505181845 | 45 | 16 | 0.9 | 1.7 | 0.05 | 0.02 | 0.02 | 83 | 1007.2 |
| 20260505181343 | 46 | 263 | 1.7 | 1.7 | 0.12 | 0.02 | 0.02 | 82 | 1007.0 |
| 20260505180839 | 46 | 358 | 0.0 | 0.9 | 0.07 | 0.01 | 0.01 | 80 | 1006.9 |
| 20260505180336 | 47 | 313 | 0.9 | 1.7 | 0.00 | 0.00 | 0.00 | 77 | 1007.1 |
| 20260505175832 | 48 | 38 | 1.7 | 2.6 | 0.00 | 0.00 | 0.00 | 75 | 1006.7 |
| 20260505175329 | 49 | 17 | 0.9 | 1.7 | 0.00 | 0.00 | 0.00 | 72 | 1006.7 |
| 20260505174825 | 49 | 74 | 0.0 | 0.9 | 0.00 | 0.00 | 0.00 | 68 | 1006.5 |
| 20260505174323 | 50 | 177 | 0.0 | 0.9 | 0.00 | 0.00 | 0.00 | 65 | 1006.4 |
| 20260505173819 | 51 | 28 | 2.6 | 2.6 | 0.00 | 0.00 | 0.00 | 60 | 1006.2 |
| 20260505173315 | 51 | 300 | 0.0 | 0.0 | 0.00 | 0.00 | 0.00 | 60 | 1006.2 |
| 20260505172813 | 51 | 323 | 0.9 | 0.9 | 0.00 | 0.00 | 0.00 | 58 | 1006.2 |
| 20260505172310 | 51 | 208 | 3.5 | 4.3 | 0.00 | 0.00 | 0.00 | 59 | 1005.9 |
| 20260505171804 | 51 | 277 | 0.9 | 0.9 | 0.00 | 0.00 | 0.00 | 57 | 1006.1 |
| 20260505171301 | 52 | 159 | 0.0 | 0.0 | 0.00 | 0.00 | 0.00 | 56 | 1006.2 |
| 20260505170758 | 52 | 21 | 1.7 | 1.7 | 0.00 | 0.00 | 0.00 | 55 | 1006.2 |
| 20260505170255 | 52 | 24 | 0.0 | 0.9 | 0.00 | 0.00 | 0.00 | 56 | 1006.2 |
| 20260505165755 | 52 | 355 | 1.7 | 1.7 | 0.00 | 0.00 | 0.00 | 55 | 1006.1 |
| 20260505165252 | 53 | 272 | 0.9 | 1.7 | 0.00 | 0.00 | 0.00 | 54 | 1006.0 |
| 20260505164748 | 53 | 126 | 0.0 | 0.0 | 0.00 | 0.00 | 0.00 | 55 | 1006.3 |
| 20260505164245 | 53 | 325 | 0.9 | 0.9 | 0.00 | 0.00 | 0.00 | 55 | 1006.0 |
| 20260505163743 | 52 | 157 | 0.9 | 0.9 | 0.00 | 0.00 | 0.00 | 56 | 1006.0 |
| 20260505163241 | 52 | 214 | 2.6 | 2.6 | 0.00 | 0.00 | 0.00 | 55 | 1005.8 |
| 20260505162739 | 52 | 111 | 0.0 | 0.9 | 0.00 | 0.00 | 0.00 | 55 | 1005.9 |
| 20260505162235 | 53 | 130 | 0.9 | 1.7 | 0.00 | 0.00 | 0.00 | 55 | 1005.8 |
| 20260505161732 | 53 | 332 | 2.6 | 4.3 | 0.00 | 0.00 | 0.00 | 56 | 1005.7 |
| 20260505161230 | 52 | 32 | 0.9 | 0.9 | 0.00 | 0.00 | 0.00 | 56 | 1005.8 |
| 20260505160727 | 52 | 19 | 0.9 | 1.7 | 0.00 | 0.00 | 0.00 | 56 | 1005.6 |
| 20260505160225 | 53 | 299 | 0.9 | 0.9 | 0.00 | 0.00 | 0.00 | 55 | 1005.7 |
| 20260505153204 | 53 | 226 | 1.7 | 1.7 | 0.00 | 0.00 | 0.00 | 56 | 1006.0 |
| 20260505152700 | 54 | 211 | 0.9 | 0.9 | 0.00 | 0.00 | 0.00 | 55 | 1005.8 |
| 20260505152156 | 54 | 4 | 3.5 | 6.1 | 0.00 | 0.00 | 0.00 | 56 | 1005.7 |
| 20260505151652 | 53 | 258 | 0.9 | 1.7 | 0.00 | 0.00 | 0.00 | 57 | 1005.6 |
| 20260505151149 | 53 | 33 | 2.6 | 4.3 | 0.00 | 0.00 | 0.00 | 56 | 1005.1 |
| 20260505150645 | 53 | 320 | 2.6 | 2.6 | 0.00 | 0.00 | 0.00 | 57 | 1005.1 |
| 20260505150143 | 52 | 216 | 2.6 | 4.3 | 0.00 | 0.00 | 0.00 | 57 | 1004.5 |
| 20260505140611 | 51 | 204 | 0.9 | 0.9 | 0.00 | 0.00 | 0.00 | 63 | 1003.5 |
| 20260505140108 | 51 | 106 | 1.7 | 1.7 | 0.00 | 0.00 | 0.00 | 63 | 1003.6 |
| 20260505125024 | 48 | 329 | 1.7 | 1.7 | 0.00 | 0.00 | 0.00 | 78 | 1003.3 |
| 20260505124521 | 47 | 10 | 1.7 | 2.6 | 0.00 | 0.00 | 0.00 | 78 | 1003.6 |
| 20260505124017 | 47 | 7 | 2.6 | 2.6 | 0.00 | 0.00 | 0.00 | 76 | 1003.2 |
| 20260505123514 | 48 | 358 | 2.6 | 2.6 | 0.00 | 0.00 | 0.00 | 79 | 1003.1 |
| 20260505123010 | 48 | 5 | 4.3 | 4.3 | 0.00 | 0.00 | 0.00 | 80 | 1003.0 |
| 20260505122507 | 48 | 3 | 1.7 | 1.7 | 0.00 | 0.00 | 0.00 | 79 | 1002.6 |
| 20260505122004 | 48 | 14 | 2.6 | 2.6 | 0.00 | 0.00 | 0.00 | 80 | 1002.5 |
| 20260505121501 | 48 | 331 | 2.6 | 2.6 | 0.00 | 0.00 | 0.00 | 82 | 1002.4 |
| 20260505120957 | 49 | 8 | 4.3 | 5.2 | 0.00 | 0.00 | 0.00 | 86 | 1002.3 |
| 20260505120453 | 50 | 310 | 0.9 | 1.7 | 0.00 | 0.00 | 0.00 | 86 | 1001.9 |
| 20260505115952 | 50 | 13 | 3.5 | 5.2 | 0.00 | 0.00 | 0.00 | 86 | 1002.2 |
| 20260505115449 | 51 | 11 | 2.6 | 4.3 | 0.00 | 0.00 | 0.00 | 85 | 1002.1 |
| 20260505114947 | 52 | 296 | 0.9 | 1.7 | 0.00 | 0.00 | 0.00 | 85 | 1002.0 |
| 20260505114443 | 53 | 351 | 2.6 | 2.6 | 0.00 | 0.00 | 0.00 | 85 | 1001.5 |
| 20260505113940 | 53 | 192 | 0.0 | 0.0 | 0.00 | 0.00 | 0.00 | 84 | 1001.3 |
| 20260505113436 | 53 | 320 | 0.9 | 0.9 | 0.00 | 0.00 | 0.00 | 84 | 1001.3 |
| 20260505112932 | 53 | 221 | 0.0 | 0.0 | 0.00 | 0.00 | 0.00 | 83 | 1001.0 |
| 20260505112430 | 54 | 242 | 1.7 | 1.7 | 0.00 | 0.00 | 0.00 | 82 | 1001.0 |
| 20260505111926 | 54 | 255 | 0.9 | 1.7 | 0.00 | 0.00 | 0.00 | 82 | 1001.1 |
| 20260505111421 | 55 | 286 | 2.6 | 4.3 | 0.00 | 0.00 | 0.00 | 81 | 1001.1 |
| 20260505110917 | 55 | 246 | 4.3 | 5.2 | 0.00 | 0.00 | 0.00 | 83 | 1001.2 |
| 20260505110414 | 55 | 242 | 2.6 | 4.3 | 0.00 | 0.00 | 0.00 | 83 | 1001.0 |
| 20260505101845 | 56 | 249 | 5.2 | 9.6 | 0.00 | 0.00 | 0.00 | 81 | 1000.1 |
| 20260505101340 | 56 | 250 | 4.3 | 4.3 | 0.00 | 0.00 | 0.00 | 81 | 1000.2 |
| 20260505100836 | 56 | 238 | 4.3 | 5.2 | 0.00 | 0.00 | 0.00 | 81 | 1000.1 |
| 20260505100333 | 56 | 243 | 5.2 | 6.1 | 0.00 | 0.00 | 0.00 | 80 | 999.7 |
| 20260505095828 | 56 | 235 | 2.6 | 4.3 | 0.00 | 0.00 | 0.00 | 80 | 999.7 |
| 20260505095326 | 56 | 212 | 4.3 | 6.1 | 0.00 | 0.00 | 0.00 | 80 | 999.6 |
| 20260505094822 | 56 | 224 | 7.0 | 8.7 | 0.00 | 0.00 | 0.00 | 80 | 999.6 |
| 20260505094319 | 56 | 228 | 6.1 | 7.0 | 0.00 | 0.00 | 0.00 | 80 | 999.4 |
| 20260505093814 | 56 | 245 | 6.1 | 8.7 | 0.00 | 0.00 | 0.00 | 80 | 999.7 |
| 20260505093312 | 56 | 262 | 5.2 | 6.1 | 0.00 | 0.00 | 0.00 | 80 | 999.6 |
| 20260505092808 | 56 | 185 | 5.2 | 5.2 | 0.00 | 0.00 | 0.00 | 80 | 999.4 |
| 20260505092308 | 57 | 223 | 4.3 | 5.2 | 0.00 | 0.00 | 0.00 | 80 | 999.4 |
| 20260505091804 | 57 | 220 | 4.3 | 6.1 | 0.00 | 0.00 | 0.00 | 80 | 999.2 |
| 20260505091303 | 57 | 194 | 6.1 | 7.0 | 0.00 | 0.00 | 0.00 | 80 | 999.2 |
| 20260505090800 | 57 | 244 | 3.5 | 4.3 | 0.00 | 0.00 | 0.00 | 79 | 999.2 |
| 20260505090258 | 57 | 240 | 6.1 | 7.0 | 0.00 | 0.00 | 0.00 | 79 | 999.1 |
| 20260505085755 | 57 | 220 | 6.1 | 8.7 | 0.00 | 0.00 | 0.00 | 80 | 999.1 |
| 20260505085253 | 57 | 194 | 4.3 | 6.1 | 0.00 | 0.00 | 0.00 | 80 | 999.3 |
| 20260505084750 | 57 | 221 | 7.8 | 7.8 | 0.00 | 0.00 | 0.00 | 80 | 999.3 |
| 20260505084249 | 57 | 211 | 7.8 | 9.6 | 0.00 | 0.00 | 0.00 | 80 | 998.9 |
| 20260505083746 | 57 | 207 | 6.1 | 6.1 | 0.00 | 0.00 | 0.00 | 80 | 999.0 |
| 20260505083242 | 57 | 197 | 4.3 | 6.1 | 0.00 | 0.00 | 0.00 | 80 | 998.9 |
| 20260505082739 | 57 | 262 | 3.5 | 6.1 | 0.00 | 0.00 | 0.00 | 80 | 999.0 |
| 20260505082236 | 57 | 184 | 2.6 | 2.6 | 0.00 | 0.00 | 0.00 | 80 | 998.9 |
| 20260505081732 | 57 | 216 | 5.2 | 6.1 | 0.00 | 0.00 | 0.00 | 80 | 999.0 |
| 20260505081229 | 58 | 215 | 4.3 | 5.2 | 0.00 | 0.00 | 0.00 | 79 | 998.9 |
| 20260505080726 | 57 | 204 | 6.1 | 7.8 | 0.00 | 0.00 | 0.00 | 80 | 999.1 |
| 20260505080221 | 57 | 216 | 5.2 | 7.0 | 0.00 | 0.00 | 0.00 | 80 | 999.2 |
| 20260505075717 | 58 | 209 | 4.3 | 5.2 | 0.00 | 0.00 | 0.00 | 78 | 999.4 |
| 20260505075215 | 58 | 218 | 4.3 | 6.1 | 0.00 | 0.00 | 0.00 | 77 | 999.4 |
| 20260505074712 | 58 | 201 | 8.7 | 11.3 | 0.00 | 0.00 | 0.00 | 76 | 999.5 |
| 20260505074209 | 58 | 216 | 4.3 | 6.1 | 0.00 | 0.00 | 0.00 | 76 | 999.6 |
| 20260505073707 | 58 | 221 | 6.1 | 7.8 | 0.00 | 0.00 | 0.00 | 76 | 999.4 |
| 20260505073205 | 58 | 245 | 4.3 | 5.2 | 0.00 | 0.00 | 0.00 | 76 | 999.4 |
| 20260505072700 | 58 | 219 | 4.3 | 7.0 | 0.00 | 0.00 | 0.00 | 75 | 999.5 |
| 20260505072156 | 59 | 293 | 4.3 | 5.2 | 0.00 | 0.00 | 0.00 | 75 | 999.1 |
| 20260505071652 | 59 | 243 | 4.3 | 5.2 | 0.00 | 0.00 | 0.00 | 74 | 999.3 |
| 20260505071150 | 59 | 226 | 6.1 | 8.7 | 0.00 | 0.00 | 0.00 | 73 | 999.4 |
| 20260505070647 | 59 | 237 | 6.1 | 7.0 | 0.00 | 0.00 | 0.00 | 73 | 999.5 |
| 20260505070143 | 60 | 200 | 7.0 | 8.7 | 0.00 | 0.00 | 0.00 | 73 | 999.4 |
| 20260505065639 | 60 | 196 | 5.2 | 6.1 | 0.00 | 0.00 | 0.00 | 72 | 999.2 |
| 20260505065136 | 60 | 235 | 7.8 | 11.3 | 0.00 | 0.00 | 0.00 | 72 | 999.8 |
| 20260505064633 | 60 | 206 | 9.6 | 11.3 | 0.00 | 0.00 | 0.00 | 72 | 999.6 |
| 20260505064131 | 60 | 206 | 7.8 | 9.6 | 0.00 | 0.00 | 0.00 | 72 | 999.6 |
| 20260505063629 | 60 | 214 | 11.3 | 13.0 | 0.00 | 0.00 | 0.00 | 72 | 999.6 |
| 20260505063124 | 59 | 255 | 7.0 | 8.7 | 0.00 | 0.00 | 0.00 | 72 | 999.7 |
| 20260505062621 | 59 | 231 | 6.1 | 7.0 | 0.00 | 0.00 | 0.00 | 73 | 999.7 |
| 20260505062118 | 59 | 181 | 6.1 | 7.8 | 0.00 | 0.00 | 0.00 | 73 | 999.8 |
| 20260505061615 | 60 | 226 | 7.8 | 7.8 | 0.00 | 0.00 | 0.00 | 73 | 999.9 |
| 20260505061113 | 60 | 202 | 9.6 | 13.0 | 0.00 | 0.00 | 0.00 | 72 | 999.8 |
| 20260505060611 | 60 | 212 | 10.4 | 12.2 | 0.00 | 0.00 | 0.00 | 72 | 999.9 |
| 20260505060107 | 60 | 200 | 9.6 | 13.0 | 0.00 | 0.00 | 0.00 | 73 | 999.9 |
| 20260505055603 | 60 | 235 | 7.0 | 9.6 | 0.00 | 0.00 | 0.00 | 73 | 999.9 |
| 20260505055059 | 60 | 190 | 7.8 | 9.6 | 0.00 | 0.00 | 0.00 | 72 | 999.8 |
| 20260505054557 | 60 | 211 | 7.8 | 9.6 | 0.00 | 0.00 | 0.00 | 72 | 999.9 |
| 20260505054055 | 60 | 209 | 12.2 | 15.6 | 0.00 | 0.00 | 0.00 | 73 | 1000.1 |
| 20260505053551 | 60 | 193 | 8.7 | 9.6 | 0.00 | 0.00 | 0.00 | 72 | 1000.2 |
| 20260505053048 | 60 | 211 | 9.6 | 11.3 | 0.00 | 0.00 | 0.00 | 71 | 1000.4 |
| 20260505052545 | 60 | 204 | 7.8 | 9.6 | 0.00 | 0.00 | 0.00 | 71 | 1000.4 |
| 20260505052043 | 60 | 211 | 8.7 | 9.6 | 0.00 | 0.00 | 0.00 | 70 | 1000.4 |
| 20260505051539 | 60 | 214 | 7.8 | 9.6 | 0.00 | 0.00 | 0.00 | 70 | 1000.4 |
| 20260505051038 | 60 | 215 | 8.7 | 12.2 | 0.00 | 0.00 | 0.00 | 71 | 1000.2 |
| 20260505050535 | 60 | 218 | 9.6 | 13.0 | 0.00 | 0.00 | 0.00 | 71 | 1000.3 |